Theta_e
337 337 332 331 330 329 326 323 313 310 308 306 306 307 307 306 307 308 310 314 314 313 313 313 313 313 315 314 315 315 315 314 313 313 313 312 311 310 309 309 308 308 309
335 332 331 329 327 324 314 311 308 306 306 307 308 308 309 311 312 312 313 313 314 315 314 313 313 315 314 314 315 314 314 313 311 312 313 313 311 309 310 310 309 308 307
332 330 327 324 316 312 309 307 306 307 309 309 309 311 313 313 313 313 313 313 313 311 310 311 313 313 313 313 314 315 314 313 314 313 313 312 312 311 310 309 308 306 307
328 324 317 312 309 307 306 307 308 310 308 307 311 314 313 313 314 313 313 312 311 310 310 311 311 311 311 311 311 313 313 314 313 313 312 311 312 312 310 309 309 306 307
319 315 311 310 309 309 310 310 309 308 307 311 313 314 314 314 314 313 313 313 313 313 312 312 312 309 309 309 310 311 312 312 312 311 310 310 312 311 311 310 309 309 306
316 314 313 313 313 312 311 309 308 307 310 312 313 313 314 314 314 312 313 313 312 313 312 311 311 310 307 308 309 311 312 312 312 312 310 311 311 312 311 309 309 309 308
314 313 313 313 313 312 311 310 308 307 311 312 313 313 314 314 313 313 311 311 311 311 312 311 310 307 305 305 307 311 313 312 312 312 311 311 311 312 311 311 311 309 309
314 313 313 313 312 312 311 310 307 309 311 312 313 314 314 313 313 311 311 311 312 312 312 310 307 304 302 303 305 311 313 314 311 311 311 311 312 311 312 312 312 311 311
312 313 312 312 312 311 311 311 311 311 311 311 311 312 311 312 311 311 311 312 312 311 310 310 306 301 299 301 306 309 312 312 311 311 312 312 312 312 312 312 312 311 311
312 312 311 311 311 311 312 311 311 311 311 311 311 312 311 311 311 311 311 310 310 309 307 304 305 299 297 302 306 309 310 311 311 312 314 314 313 312 312 312 311 311 311
311 310 310 311 311 311 311 311 311 311 310 310 311 311 311 311 311 311 312 311 310 307 305 302 300 296 297 302 306 308 309 310 310 312 312 312 312 312 312 311 312 313 314
310 310 311 309 310 310 309 308 308 309 310 311 311 311 310 311 311 312 312 310 309 306 301 298 296 295 295 298 303 306 308 307 309 310 311 311 310 310 310 312 312 312 312
310 310 309 308 308 307 309 309 310 310 312 312 312 312 310 308 308 311 311 308 306 304 299 295 294 295 295 299 296 299 303 305 306 308 309 309 309 309 310 311 312 312 311
310 309 308 308 308 308 308 309 310 311 311 311 311 311 310 307 307 309 308 303 301 299 298 298 296 297 298 298 299 299 299 300 302 304 306 307 308 308 308 309 309 310 310
310 309 309 307 308 308 307 307 306 307 308 309 308 308 309 305 309 309 308 305 302 298 297 298 298 298 299 299 299 299 299 299 300 300 300 301 303 306 307 308 308 308 310
309 309 308 308 308 307 306 304 304 305 305 305 305 306 307 308 307 306 304 301 299 296 297 297 296 297 298 298 298 298 298 298 299 299 299 300 300 301 302 305 306 306 307
309 308 307 308 308 308 307 307 304 303 303 304 304 303 304 304 304 304 302 298 295 294 295 295 295 296 297 297 297 297 297 297 298 298 299 299 300 300 301 301 303 305 305
308 307 308 308 308 308 308 307 307 304 303 304 304 302 303 302 302 300 298 295 295 294 294 294 294 294 295 296 296 297 297 296 297 298 298 299 299 299 299 300 300 302 304
307 307 308 308 308 308 307 307 307 305 303 304 303 303 302 300 299 298 296 294 293 293 292 292 292 293 293 294 295 295 296 295 296 297 297 298 298 298 298 299 299 299 299
307 307 307 307 306 307 306 306 306 304 303 303 301 300 299 298 297 294 293 292 292 292 291 291 291 291 292 292 293 294 295 295 295 295 296 297 297 297 298 298 298 298 297
306 304 306 307 307 306 306 306 305 304 304 303 302 300 299 298 296 294 292 291 290 290 290 290 290 290 290 290 291 292 293 294 294 294 295 295 296 296 297 297 297 297 296
305 305 305 306 305 305 305 305 304 303 303 303 299 299 298 296 295 293 292 290 289 289 289 289 289 289 289 289 290 290 291 291 292 293 294 294 294 295 296 296 296 296 296
305 305 305 305 305 304 304 304 304 303 302 301 298 297 297 296 294 293 291 290 289 289 288 289 289 289 288 288 288 288 288 288 288 290 292 293 293 293 294 294 295 295 295
305 305 305 304 303 303 304 303 302 301 301 300 298 297 296 295 294 292 291 289 288 288 288 288 287 287 287 287 287 287 287 287 287 287 291 291 292 291 293 293 293 294 294
304 304 304 303 301 302 302 302 301 299 299 299 298 297 296 295 293 292 290 289 288 288 287 287 287 286 286 286 286 287 287 287 287 287 289 290 290 290 290 291 291 292 292
302 303 302 300 301 301 301 300 299 299 298 297 296 295 295 294 293 291 289 288 288 287 287 287 286 286 286 286 286 286 286 286 286 287 288 289 288 289 288 289 289 290 290
Wind_Speed
23 22 21 17 14 12 9 8 6 4 2 2 3 5 5 5 5 6 6 6 7 9 11 11 10 12 9 11 11 13 14 16 19 24 23 26 27 26 29 30 30 29 24
24 22 18 15 13 12 10 8 5 3 3 5 6 6 5 4 5 6 7 7 8 8 9 10 11 10 12 13 12 15 15 16 18 22 24 25 26 26 29 30 31 28 27
23 19 17 16 14 12 9 7 5 5 7 7 6 6 7 8 10 9 9 9 9 9 10 11 11 13 13 14 14 16 17 18 18 20 24 23 25 27 30 30 39 31 26
21 19 19 16 14 11 9 7 8 8 8 8 7 8 10 11 10 9 9 8 8 10 11 11 12 14 16 18 17 16 17 18 19 20 22 22 24 28 32 38 43 35 27
21 19 17 15 13 11 11 10 9 9 9 8 7 8 9 9 8 10 9 8 8 8 10 10 11 14 17 17 18 18 19 18 18 21 21 20 25 30 38 38 37 38 26
19 18 16 15 13 11 11 11 10 10 9 8 7 8 8 8 7 8 8 7 7 8 9 11 12 15 17 17 14 14 16 21 20 25 25 23 30 32 33 33 34 36 29
19 18 16 14 13 12 12 11 10 10 10 8 8 9 9 8 7 8 7 7 8 10 12 15 16 16 21 20 16 16 15 20 23 23 21 22 26 27 30 33 34 34 25
18 16 15 15 14 13 12 11 11 10 9 7 8 9 9 8 7 7 6 8 9 11 15 17 19 20 21 22 18 14 12 11 15 16 19 19 20 24 26 27 29 30 29
18 16 16 15 14 12 11 11 10 9 8 7 8 9 7 7 6 5 6 6 9 11 14 18 21 24 22 20 17 15 13 13 15 19 23 24 21 22 23 25 28 31 33
17 17 16 14 13 13 11 10 9 8 7 6 7 8 7 5 4 4 5 6 9 10 11 14 21 24 21 19 18 17 15 17 17 18 17 19 21 21 22 23 24 26 28
18 17 16 15 14 12 11 10 9 8 7 7 6 7 5 5 4 4 6 9 12 10 11 13 19 22 20 19 18 17 17 17 17 15 16 16 19 21 21 26 24 23 26
19 18 17 16 13 11 10 8 7 7 7 6 6 5 3 3 3 3 6 9 13 12 12 16 19 20 19 16 18 16 14 15 14 14 14 16 18 20 25 27 24 21 22
19 18 16 14 12 10 8 8 6 6 6 5 5 4 3 3 4 4 5 8 11 12 14 15 15 15 17 16 16 17 18 16 15 15 16 17 18 20 20 19 22 20 22
19 17 15 13 12 10 8 7 6 5 5 5 4 3 2 3 2 4 6 8 11 12 13 13 16 17 18 17 16 17 17 17 17 16 17 17 17 18 20 21 21 26 22
16 15 14 13 10 10 8 9 4 7 11 6 4 3 3 1 2 4 6 8 11 13 12 10 12 13 14 14 15 17 17 18 18 19 19 19 18 18 18 19 20 21 24
16 14 12 10 9 7 7 5 3 3 7 7 7 7 4 1 1 5 8 10 11 12 10 10 12 13 14 14 16 17 18 19 18 18 19 20 20 20 20 18 19 21 22
13 13 12 10 9 8 6 5 3 4 6 6 5 7 6 5 7 8 9 9 11 10 9 10 11 12 13 13 14 15 17 17 18 18 19 20 21 21 21 20 20 20 21
13 14 11 10 8 7 6 6 5 5 6 6 7 6 7 6 7 8 8 10 9 11 10 10 11 11 12 12 13 14 15 17 17 18 19 20 21 21 22 23 22 22 20
12 12 10 10 9 9 6 6 6 7 7 7 7 5 6 7 7 7 7 8 9 9 10 10 11 11 11 12 12 13 15 17 18 18 18 19 20 21 22 22 22 23 23
12 14 12 9 9 7 6 6 7 8 8 7 6 5 4 7 5 7 9 9 9 9 9 10 10 10 11 12 13 14 14 15 17 18 18 19 20 20 21 22 22 22 24
10 13 13 10 8 7 6 7 7 9 10 9 7 7 4 4 6 6 7 7 7 8 8 9 9 10 11 12 13 14 14 15 16 17 18 19 20 20 20 20 21 21 23
10 10 11 9 9 7 6 8 8 10 10 9 9 8 6 4 3 6 6 6 7 7 7 8 8 10 11 12 13 14 14 14 16 17 17 18 19 18 19 20 20 21 21
10 11 11 10 8 11 10 9 9 9 10 10 10 8 5 3 4 4 5 5 6 6 7 7 9 10 11 12 13 14 15 17 16 15 16 17 17 18 17 18 19 21 21
11 11 10 10 8 10 10 10 10 12 11 10 10 7 6 4 3 2 3 4 4 5 6 7 9 11 12 12 13 14 16 17 17 17 15 16 16 17 17 17 18 19 20
11 11 11 11 10 11 13 11 10 11 11 11 9 9 7 5 3 2 3 3 4 4 5 7 8 9 11 12 13 15 16 16 16 17 13 14 15 17 16 16 18 17 19
13 13 12 10 10 10 11 12 13 13 12 11 9 7 6 5 4 3 3 4 3 4 5 6 8 9 10 12 14 14 15 15 16 15 16 14 15 15 16 16 18 16 17
Wind_Direction
154 158 158 159 160 161 155 161 170 180 165 66 52 67 70 74 86 92 84 65 56 50 45 35 28 26 18 4 4 0 356 340 334 342 345 349 348 351 354 357 346 348 344
152 157 159 160 160 157 161 168 172 152 116 93 91 83 76 79 91 93 90 77 68 51 45 38 27 18 18 360 6 357 352 350 343 336 346 351 353 356 355 351 349 343 352
154 160 160 158 163 167 164 169 156 125 109 105 100 95 89 94 102 99 94 84 70 59 51 39 26 16 7 1 357 352 350 351 348 342 339 345 353 349 350 352 1 352 351
155 159 159 161 161 161 159 147 130 124 119 112 106 106 106 106 101 98 94 79 68 51 43 31 14 8 4 2 357 350 343 349 342 347 342 343 351 351 354 355 3 2 358
152 151 150 151 148 144 137 134 132 127 122 116 108 115 115 120 108 116 94 71 54 37 22 13 350 3 2 353 347 349 354 349 347 350 347 351 355 354 357 359 3 359 4
145 144 143 141 140 142 139 135 131 128 123 117 121 126 128 122 109 110 102 68 50 27 14 7 1 342 355 356 347 347 357 357 358 358 3 350 359 357 358 360 6 359 359
144 142 143 144 146 144 141 137 137 136 129 121 129 132 133 129 121 105 87 66 41 18 11 6 3 350 357 355 355 360 345 348 355 358 354 358 358 360 1 3 6 7 359
142 142 142 142 144 141 141 143 140 134 125 120 131 131 126 130 122 98 77 51 23 10 5 3 0 358 355 355 3 353 357 351 350 359 3 3 1 3 3 3 8 1 6
142 143 142 142 141 143 142 140 138 133 131 129 131 126 117 120 108 82 54 22 4 3 359 355 358 356 357 4 9 1 0 347 357 5 5 2 3 0 358 1 8 9 7
142 139 138 140 141 146 145 141 143 140 134 132 135 131 128 121 101 74 45 16 1 6 358 351 348 352 1 6 8 4 4 356 4 1 2 0 355 356 354 5 7 7 10
140 138 136 137 140 142 142 142 146 149 143 133 135 137 129 117 96 55 27 21 10 0 352 352 349 355 359 2 5 4 360 353 5 356 358 356 359 360 0 8 6 358 351
136 134 135 134 131 139 144 152 156 155 147 140 131 115 104 92 66 31 14 11 2 6 357 357 359 359 359 5 8 1 358 9 357 358 359 359 359 3 8 2 5 13 9
136 134 137 134 135 135 131 130 130 137 146 142 139 137 104 60 14 357 357 359 7 5 1 2 0 1 8 13 10 14 14 8 6 1 357 355 355 354 1 3 4 11 20
135 136 136 134 131 125 117 117 126 131 136 139 138 144 113 61 354 337 352 6 2 13 5 352 8 16 13 19 16 16 16 13 11 3 357 353 355 359 359 6 11 14 12
135 138 140 137 132 124 138 134 129 172 158 138 130 140 125 64 338 346 7 10 13 9 19 9 14 18 21 22 19 19 18 19 17 10 5 2 360 0 2 359 6 8 21
141 140 143 141 133 135 124 128 139 183 196 189 180 148 164 160 32 30 17 14 13 8 28 25 24 20 24 21 21 18 16 17 17 14 10 9 8 5 6 3 2 10 8
142 151 151 145 149 148 139 128 117 100 128 136 134 142 121 78 44 29 17 16 19 20 38 30 31 25 25 19 21 19 14 13 12 14 14 12 11 10 10 9 5 5 7
152 157 151 158 158 150 150 151 161 154 137 148 145 123 89 62 48 36 24 33 26 31 36 32 31 27 23 20 17 16 12 11 15 14 14 14 12 12 11 12 9 6 4
152 158 159 164 160 164 158 147 161 155 158 160 147 122 90 64 45 30 32 47 42 35 35 31 31 26 23 18 12 14 11 9 12 14 12 13 12 11 11 11 11 9 9
166 173 161 166 172 164 164 163 173 161 163 146 142 137 107 61 42 35 40 43 42 40 36 31 25 23 22 19 14 13 12 10 12 12 12 12 11 10 9 8 9 10 8
164 179 164 166 172 181 181 169 178 167 158 156 161 159 134 73 45 46 42 41 47 38 34 34 24 22 23 20 17 16 12 9 11 11 11 10 7 9 8 8 9 9 5
165 172 168 176 185 184 181 175 176 165 159 165 162 160 134 130 62 53 44 45 44 43 39 33 29 26 27 24 19 16 10 9 10 8 9 7 5 8 6 6 7 9 8
166 166 173 180 183 194 175 176 171 170 167 164 154 145 148 125 80 63 52 48 46 43 40 37 36 30 29 25 24 19 18 19 15 4 8 3 4 5 6 5 6 6 8
170 173 179 187 187 175 179 177 173 167 163 159 158 150 150 128 112 82 65 66 60 50 45 42 38 36 31 29 25 23 20 19 18 14 15 1 3 4 5 4 6 5 6
187 182 188 191 184 172 179 172 174 166 163 163 157 149 150 145 131 99 92 89 83 69 52 47 42 32 25 22 21 19 18 15 16 15 22 5 7 5 10 5 6 5 6
193 189 191 195 181 177 177 177 168 166 168 163 159 161 152 154 149 134 118 114 99 78 66 46 35 29 22 17 16 14 15 14 16 12 30 10 9 4 14 10 7 8 7